Location: Banska Bystrica
(0.0000°N, 19.1500°E)
Time: 00:31:53
(UTC+02:00)

BLOCK DM-SL R/B - Pass Details

Date: 19 February 2019
Orbit: 713 x 21634 km, 0.1° (Epoch: 15 October)

Event Time Altitude Azimuth Distance (km) Brightness Sun altitude
Rises 18:58:00 0° 270° (W) 19,586 11.9 -14.9°
Reaches altitude 10° 19:32:44 10° 270° (W) 12,298 10.2 -23.4°
Maximum altitude 20:05:28 90° 203° (SSW) 1,815 4.7 -31.4°
Enters shadow 20:07:00 66° 90° (E) 1,695 4.3 -31.8°
